CW0028 Weather Reports


time (UTC)temp
F
wind
direction
speed
knots
gust
knots
rain 1hr
in
rain 24hr
in
rain mn
in
humidity
%
barometer
mb
20260506041010 61 129 4.3 15.6 0.00 0.00 0.00 58 1011.1
20260506040511 61 129 5.2 15.6 0.00 0.00 0.00 58 1011.2
20260506040008 61 103 4.3 9.6 0.00 0.00 0.00 58 1011.2
20260506035508 61 154 4.3 13.0 0.00 0.00 0.00 58 1011.1
20260506035008 61 150 2.6 13.0 0.00 0.00 0.00 58 1011.1
20260506034508 61 251 3.5 11.3 0.00 0.00 0.00 58 1011.1
20260506034009 61 167 6.1 11.3 0.00 0.00 0.00 58 1011.0
20260506033507 61 125 4.3 14.8 0.00 0.00 0.00 58 1011.1
20260506033007 61 110 2.6 14.8 0.00 0.00 0.00 58 1010.9
20260506032507 61 115 4.3 11.3 0.00 0.00 0.00 58 1011.0
20260506032007 61 151 4.3 10.4 0.00 0.00 0.00 58 1010.9
20260506031507 61 133 6.1 13.9 0.00 0.00 0.00 58 1010.9
20260506031008 62 246 3.5 11.3 0.00 0.00 0.00 58 1011.1
20260506030506 62 67 5.2 13.9 0.00 0.00 0.00 58 1011.1
20260506030006 62 223 6.1 13.9 0.00 0.00 0.00 58 1011.1
20260506025511 62 243 7.0 15.6 0.00 0.00 0.00 57 1011.1
20260506025008 62 84 6.1 12.2 0.00 0.00 0.00 57 1011.2
20260506024507 62 205 3.5 13.0 0.00 0.00 0.00 57 1011.2
20260506024006 62 171 4.3 13.0 0.00 0.00 0.00 57 1011.0
20260506023506 62 109 6.1 12.2 0.00 0.00 0.00 56 1011.0
20260506023005 62 214 5.2 13.0 0.00 0.00 0.00 56 1011.0
20260506022505 62 136 6.1 13.0 0.00 0.00 0.00 56 1011.1
20260506022005 62 232 7.0 15.6 0.00 0.00 0.00 56 1011.1
20260506021505 62 173 5.2 18.2 0.00 0.00 0.00 55 1011.1
20260506021006 63 166 7.8 18.2 0.00 0.00 0.00 55 1010.9
20260506020504 63 80 2.6 13.9 0.00 0.00 0.00 55 1011.1
20260506020004 63 93 6.1 13.0 0.00 0.00 0.00 54 1011.1
20260506015505 63 146 4.3 14.8 0.00 0.00 0.00 54 1011.0
20260506015005 63 196 5.2 14.8 0.00 0.00 0.00 54 1010.9
20260506014507 64 77 3.5 13.9 0.00 0.00 0.00 53 1010.9
20260506014004 64 176 5.2 13.9 0.00 0.00 0.00 53 1010.9
20260506013504 64 135 5.2 13.0 0.00 0.00 0.00 53 1010.8
20260506013006 64 133 5.2 13.0 0.00 0.00 0.00 52 1010.8
20260506012504 64 151 4.3 12.2 0.00 0.00 0.00 52 1010.7
20260506012004 64 213 4.3 14.8 0.00 0.00 0.00 52 1010.5
20260506011503 65 133 6.1 14.8 0.00 0.00 0.00 52 1010.6
20260506011003 65 222 5.2 16.5 0.00 0.00 0.00 52 1010.6
20260506010503 65 295 6.1 16.5 0.00 0.00 0.00 52 1010.7
20260506010003 65 240 7.0 16.5 0.00 0.00 0.00 51 1010.4
20260506005502 65 238 4.3 17.4 0.00 0.00 0.00 51 1010.3
20260506005002 65 169 6.1 17.4 0.00 0.00 0.00 51 1010.2
20260506004504 65 61 3.5 9.6 0.00 0.00 0.00 51 1010.2
20260506004002 65 148 2.6 10.4 0.00 0.00 0.00 51 1010.2
20260506003502 65 178 2.6 13.9 0.00 0.00 0.00 51 1010.3
20260506003002 66 150 7.0 13.9 0.00 0.00 0.00 50 1010.0
20260506002502 66 95 3.5 12.2 0.00 0.00 0.00 50 1010.1
20260506002002 66 119 2.6 14.8 0.00 0.00 0.00 50 1010.0
20260506001502 66 167 7.8 16.5 0.00 0.00 0.00 50 1010.1
20260506001002 66 177 5.2 13.9 0.00 0.00 0.00 50 1010.0
20260506000501 66 211 5.2 10.4 0.00 0.00 0.00 50 1009.9
20260506000000 66 146 4.3 11.3 0.00 0.00 0.00 50 1009.9
20260505235501 66 142 2.6 11.3 0.00 0.00 0.00 49 1009.7
20260505235002 66 142 4.3 12.2 0.00 0.00 0.00 49 1009.7
20260505234617 66 234 2.6 14.8 0.00 0.00 0.00 49 1009.7
20260505234101 66 44 3.5 14.8 0.00 0.00 0.00 49 1009.7
20260505233600 66 136 5.2 11.3 0.00 0.00 0.00 49 1009.4
20260505233100 66 202 3.5 11.3 0.00 0.00 0.00 49 1009.4
20260505232600 66 66 3.5 13.0 0.00 0.00 0.00 48 1009.4
20260505232100 67 229 6.1 15.6 0.00 0.00 0.00 48 1009.2
20260505231601 67 209 3.5 15.6 0.00 0.00 0.00 48 1009.1
20260505231059 67 144 4.3 11.3 0.00 0.00 0.00 48 1009.2
20260505230559 67 219 3.5 12.2 0.00 0.00 0.00 47 1009.1
20260505230059 68 93 7.0 13.0 0.00 0.00 0.00 47 1009.1
20260505225602 68 170 1.7 13.0 0.00 0.00 0.00 46 1009.0
20260505225059 68 145 2.6 11.3 0.00 0.00 0.00 46 1009.0
20260505224559 69 219 3.5 14.8 0.00 0.00 0.00 45 1008.8
20260505224102 69 174 6.1 14.8 0.00 0.00 0.00 45 1009.0
20260505223558 70 217 6.1 13.9 0.00 0.00 0.00 45 1008.9
20260505223104 70 294 1.7 12.2 0.00 0.00 0.00 45 1008.9
20260505222558 70 82 2.6 12.2 0.00 0.00 0.00 44 1008.8
20260505222058 70 198 4.3 13.0 0.00 0.00 0.00 44 1008.6
20260505221602 70 140 5.2 17.4 0.00 0.00 0.00 45 1008.7
20260505221057 70 126 5.2 17.4 0.00 0.00 0.00 44 1008.9
20260505220558 70 129 5.2 13.9 0.00 0.00 0.00 45 1008.8
20260505220107 70 147 6.1 14.8 0.00 0.00 0.00 44 1008.7
20260505215557 70 161 4.3 11.3 0.00 0.00 0.00 45 1008.7
20260505215057 70 119 5.2 14.8 0.00 0.00 0.00 44 1008.9
20260505214607 70 132 6.1 14.8 0.00 0.00 0.00 44 1008.7
20260505214056 70 150 4.3 14.8 0.00 0.00 0.00 45 1008.6
20260505213555 71 144 3.5 14.8 0.00 0.00 0.00 45 1008.6
20260505213056 71 154 5.2 17.4 0.00 0.00 0.00 45 1008.8
20260505212501 71 225 6.1 16.5 0.00 0.00 0.00 44 1008.8
20260505212003 71 197 3.5 13.9 0.00 0.00 0.00 44 1008.5
20260505211508 71 128 5.2 14.8 0.00 0.00 0.00 45 1008.6
20260505211011 71 96 6.1 11.3 0.00 0.00 0.00 45 1008.5
20260505210554 71 49 2.6 11.3 0.00 0.00 0.00 44 1008.4
20260505210018 71 34 3.5 13.0 0.00 0.00 0.00 44 1008.4
20260505205558 71 101 4.3 13.0 0.00 0.00 0.00 44 1008.4
20260505205100 71 123 5.2 13.0 0.00 0.00 0.00 44 1008.5
20260505204506 72 117 5.2 13.0 0.00 0.00 0.00 44 1008.6
20260505204008 72 146 7.0 14.8 0.00 0.00 0.00 44 1008.6
20260505203510 72 141 3.5 12.2 0.00 0.00 0.00 44 1008.5
20260505203056 72 128 3.5 12.2 0.00 0.00 0.00 44 1008.6
20260505202556 72 114 4.3 11.3 0.00 0.00 0.00 43 1008.6
20260505202021 73 140 5.2 13.9 0.00 0.00 0.00 43 1008.7
20260505201554 73 132 5.2 13.9 0.00 0.00 0.00 43 1008.6
20260505201059 73 111 5.2 13.0 0.00 0.00 0.00 43 1008.8
20260505200508 74 226 4.3 12.2 0.00 0.00 0.00 42 1008.8
20260505200007 74 157 4.3 12.2 0.00 0.00 0.00 42 1008.7
20260505195556 74 253 5.2 13.9 0.00 0.00 0.00 43 1008.6
20260505195057 74 132 5.2 11.3 0.00 0.00 0.00 43 1008.7
20260505194501 74 225 4.3 11.3 0.00 0.00 0.00 43 1008.9
20260505194006 74 127 7.8 11.3 0.00 0.00 0.00 43 1009.1
20260505193512 74 229 4.3 9.6 0.00 0.00 0.00 43 1009.1
20260505193053 74 147 4.3 9.6 0.00 0.00 0.00 44 1009.0
20260505192558 74 131 5.2 9.6 0.00 0.00 0.00 43 1009.2
20260505192020 73 207 5.2 11.3 0.00 0.00 0.00 44 1009.3
20260505191603 73 84 5.2 13.0 0.00 0.00 0.00 43 1009.4
20260505191018 73 155 5.2 13.0 0.00 0.00 0.00 43 1009.4
20260505190558 73 205 7.0 13.0 0.00 0.00 0.00 43 1009.6
20260505190004 73 42 6.1 12.2 0.00 0.00 0.00 43 1009.7
20260505185506 73 138 7.0 12.2 0.00 0.00 0.00 43 1009.7
20260505185009 74 127 6.1 13.0 0.00 0.00 0.00 42 1009.9
20260505184554 74 114 6.1 13.0 0.00 0.00 0.00 42 1010.0
20260505184057 74 226 4.3 13.0 0.00 0.00 0.00 42 1010.0
20260505183600 74 144 5.2 13.0 0.00 0.00 0.00 43 1010.1
20260505183003 74 150 5.2 12.2 0.00 0.00 0.00 44 1009.9
20260505182507 73 96 5.2 13.0 0.00 0.00 0.00 45 1009.9
20260505182013 73 151 5.2 13.0 0.00 0.00 0.00 45 1010.0
20260505181639 73 95 5.2 13.9 0.00 0.00 0.00 45 1010.0
20260505181017 73 167 7.8 13.0 0.00 0.00 0.00 47 1010.1
20260505180558 72 115 5.2 13.0 0.00 0.00 0.00 45 1010.3
20260505180002 72 107 5.2 13.9 0.00 0.00 0.00 46 1010.3
20260505175503 71 192 5.2 13.9 0.00 0.00 0.00 47 1010.3
20260505175009 71 271 4.3 15.6 0.00 0.00 0.00 47 1010.4
20260505174510 72 165 7.0 15.6 0.00 0.00 0.00 46 1010.4
20260505174055 71 178 5.2 13.9 0.00 0.00 0.00 46 1010.5
20260505173556 72 186 7.8 13.9 0.00 0.00 0.00 46 1010.4
20260505173002 72 288 4.3 13.0 0.00 0.00 0.00 45 1010.6
20260505172504 73 43 5.2 11.3 0.00 0.00 0.00 44 1010.5
20260505172008 73 215 5.2 15.6 0.00 0.00 0.00 45 1010.5
20260505171601 73 190 7.8 16.5 0.00 0.00 0.00 44 1010.5
20260505171100 73 209 7.8 16.5 0.00 0.00 0.00 43 1010.5
20260505170504 74 98 5.2 12.2 0.00 0.00 0.00 42 1010.5
20260505170006 74 144 6.1 12.2 0.00 0.00 0.00 43 1010.6
20260505165511 74 84 3.5 13.0 0.00 0.00 0.00 43 1010.5
20260505165054 74 103 6.1 13.0 0.00 0.00 0.00 42 1010.6
20260505164558 74 62 2.6 10.4 0.00 0.00 0.00 42 1010.5
20260505164003 73 133 5.2 11.3 0.00 0.00 0.00 44 1010.7
20260505163503 74 208 4.3 11.3 0.00 0.00 0.00 45 1010.8
20260505163010 74 114 4.3 10.4 0.00 0.00 0.00 43 1010.8
20260505162510 74 117 3.5 9.6 0.00 0.00 0.00 45 1011.0
20260505162055 74 74 5.2 10.4 0.00 0.00 0.00 43 1010.9
20260505161518 75 120 4.3 10.4 0.00 0.00 0.00 43 1011.0
20260505161059 75 143 4.3 13.0 0.00 0.00 0.00 43 1010.9
20260505160601 75 203 6.1 13.0 0.00 0.00 0.00 41 1010.9
20260505153033 72 140 3.5 13.9 0.00 0.00 0.00 43 1011.2
20260505152556 72 194 6.1 13.9 0.00 0.00 0.00 43 1011.4
20260505152058 72 133 2.6 7.8 0.00 0.00 0.00 44 1011.5
20260505151507 72 144 4.3 10.4 0.00 0.00 0.00 44 1011.5
20260505151009 72 263 6.1 10.4 0.00 0.00 0.00 43 1011.6
20260505150553 72 264 4.3 10.4 0.00 0.00 0.00 43 1011.6
20260505140558 70 155 1.7 8.7 0.00 0.00 0.00 44 1011.4
20260505125021 66 140 1.7 7.0 0.00 0.00 0.00 46 1011.3
20260505124557 66 96 1.7 7.0 0.00 0.00 0.00 46 1011.2
20260505124058 65 252 1.7 9.6 0.00 0.00 0.00 49 1011.2
20260505123508 64 167 4.3 9.6 0.00 0.00 0.00 47 1011.1
20260505123007 64 165 2.6 7.8 0.00 0.00 0.00 49 1011.1
20260505122510 63 236 0.9 7.0 0.00 0.00 0.00 51 1011.2
20260505122056 63 238 2.6 7.0 0.00 0.00 0.00 51 1011.2
20260505121517 63 245 2.6 7.0 0.00 0.00 0.00 53 1011.2
20260505121057 62 88 1.7 7.0 0.00 0.00 0.00 53 1011.2
20260505120518 61 103 2.6 7.0 0.00 0.00 0.00 54 1011.3
20260505120112 61 186 2.6 7.0 0.00 0.00 0.00 55 1011.5
20260505115501 60 146 0.0 6.1 0.00 0.00 0.00 57 1011.4
20260505115002 60 265 0.9 6.1 0.00 0.00 0.00 57 1011.5
20260505114509 59 157 0.0 2.6 0.00 0.00 0.00 59 1011.4
20260505114011 58 158 0.9 3.5 0.00 0.00 0.00 62 1011.5
20260505113555 57 151 0.0 5.2 0.00 0.00 0.00 65 1011.5
20260505113057 56 209 1.7 5.2 0.00 0.00 0.00 67 1011.5
20260505112520 56 133 0.9 6.1 0.00 0.00 0.00 69 1011.6
20260505112057 54 226 0.9 6.1 0.00 0.00 0.00 69 1011.5
20260505111522 54 188 1.7 4.3 0.00 0.00 0.00 69 1011.4
20260505111058 53 190 0.9 6.1 0.00 0.00 0.00 70 1011.4
20260505110559 53 161 1.7 6.1 0.00 0.00 0.00 69 1011.5
20260505102023 52 136 1.7 6.1 0.00 0.00 0.00 67 1011.0
20260505101516 52 90 1.7 5.2 0.00 0.00 0.00 67 1010.8
20260505101056 51 153 0.9 5.2 0.00 0.00 0.00 67 1010.8
20260505100559 51 142 0.9 3.5 0.00 0.00 0.00 67 1010.6
20260505100002 51 101 0.9 2.6 0.00 0.00 0.00 67 1010.5
20260505095512 51 71 0.9 2.6 0.00 0.00 0.00 67 1010.5
20260505095011 52 142 0.0 3.5 0.00 0.00 0.00 67 1010.6
20260505094511 52 136 0.0 3.5 0.00 0.00 0.00 66 1010.6
20260505094055 52 135 0.0 1.7 0.00 0.00 0.00 66 1010.5
20260505093558 52 135 0.0 2.6 0.00 0.00 0.00 66 1010.5
20260505093018 52 182 0.9 3.5 0.00 0.00 0.00 66 1010.5
20260505092554 52 170 0.9 3.5 0.00 0.00 0.00 66 1010.5
20260505092015 52 105 0.9 3.5 0.00 0.00 0.00 65 1010.6
20260505091557 52 130 1.7 3.5 0.00 0.00 0.00 65 1010.5
20260505091100 52 155 0.0 2.6 0.00 0.00 0.00 65 1010.6
20260505090518 52 124 0.0 2.6 0.00 0.00 0.00 65 1010.6
20260505090058 52 158 0.0 2.6 0.00 0.00 0.00 65 1010.6
20260505085519 52 205 0.0 3.5 0.00 0.00 0.00 65 1010.7
20260505085057 52 221 1.7 3.5 0.00 0.00 0.00 65 1010.7
20260505084605 52 126 0.9 5.2 0.00 0.00 0.00 65 1010.7
20260505084002 52 103 1.7 5.2 0.00 0.00 0.00 65 1010.6
20260505083505 52 104 0.9 4.3 0.00 0.00 0.00 65 1010.6
20260505083008 52 148 0.0 4.3 0.00 0.00 0.00 65 1010.6
20260505082556 53 181 0.9 2.6 0.00 0.00 0.00 65 1010.7
20260505082056 53 155 0.9 3.5 0.00 0.00 0.00 65 1010.6
20260505081503 53 127 0.9 3.5 0.00 0.00 0.00 65 1010.6
20260505081008 53 126 0.9 2.6 0.00 0.00 0.00 65 1010.6
20260505080517 53 186 0.9 2.6 0.00 0.00 0.00 65 1010.5
20260505080058 53 142 0.9 3.5 0.00 0.00 0.00 65 1010.5
20260505075556 53 117 0.9 3.5 0.00 0.00 0.00 65 1010.5
20260505075102 53 138 0.0 2.6 0.00 0.00 0.00 65 1010.5
20260505074505 53 138 0.0 3.5 0.00 0.00 0.00 64 1010.5
20260505074006 53 137 0.9 3.5 0.00 0.00 0.00 64 1010.4
20260505073514 53 89 1.7 5.2 0.00 0.00 0.00 64 1010.4
20260505073100 53 207 1.7 5.2 0.00 0.00 0.00 64 1010.4
20260505072557 53 182 0.0 3.5 0.00 0.00 0.00 64 1010.3
20260505072007 53 103 0.0 3.5 0.00 0.00 0.00 64 1010.3
20260505071509 53 59 0.9 3.5 0.00 0.00 0.00 64 1010.4
20260505071051 53 46 0.9 4.3 0.00 0.00 0.00 64 1010.5
20260505070557 53 238 2.6 4.3 0.00 0.00 0.00 64 1010.5
20260505070107 53 110 0.9 7.0 0.00 0.00 0.00 63 1010.4
20260505065504 54 156 0.9 7.0 0.00 0.00 0.00 63 1010.4
20260505065004 54 169 0.9 6.1 0.00 0.00 0.00 63 1010.5
20260505064511 54 121 3.5 6.1 0.00 0.00 0.00 63 1010.4
20260505064053 54 202 2.6 8.7 0.00 0.00 0.00 63 1010.5
20260505063555 54 61 2.6 9.6 0.00 0.00 0.00 63 1010.4
20260505063019 54 163 3.5 9.6 0.00 0.00 0.00 63 1010.5
20260505062600 54 90 3.5 8.7 0.00 0.00 0.00 62 1010.5
20260505062002 54 96 3.5 10.4 0.00 0.00 0.00 62 1010.6
20260505061507 54 134 1.7 10.4 0.00 0.00 0.00 62 1010.5
20260505061010 54 162 3.5 7.8 0.00 0.00 0.00 62 1010.6
20260505060557 54 101 3.5 8.7 0.00 0.00 0.00 61 1010.6
20260505060056 54 126 2.6 8.7 0.00 0.00 0.00 61 1010.7
20260505055503 54 155 3.5 8.7 0.00 0.00 0.00 61 1010.8
20260505055004 55 169 2.6 7.8 0.00 0.00 0.00 60 1010.8
20260505054517 55 174 3.5 8.7 0.00 0.00 0.00 60 1010.9
20260505054051 55 121 1.7 7.0 0.00 0.00 0.00 60 1010.8
20260505053556 55 99 1.7 7.0 0.00 0.00 0.00 59 1010.9
20260505053005 55 142 3.5 10.4 0.00 0.00 0.00 59 1010.9
20260505052506 55 121 1.7 10.4 0.00 0.00 0.00 58 1010.9
20260505052011 55 122 2.6 8.7 0.00 0.00 0.00 58 1010.9
20260505051554 56 108 3.5 7.0 0.00 0.00 0.00 58 1010.9
20260505051057 56 123 1.7 7.0 0.00 0.00 0.00 58 1010.9
20260505050501 56 84 1.7 7.0 0.00 0.00 0.00 58 1011.0
20260505041609 57 71 2.6 7.0 0.00 0.00 0.00 56 1011.3